Regional Weather Roundup
Issued by NWS

Home | Current Version | Previous Version | Graphics & Text | Print | Product List | Glossary On
Versions: 1 2 3 4 5 6 7 8 9 10 11 12 13 14 15 16 17 18 19 20 21 22 23 24 25 26 27 28 29 30 31 32 33 34 35 36 37 38 39 40 41 42 43 44 45 46 47 48 49 50
472
ASUS45 KBOI 220610
RWRID

IDAHO REGIONAL WEATHER ROUNDUP
NATIONAL WEATHER SERVICE BOISE ID
1100 PM MST TUE FEB 21 2017

NOTE: "FAIR" INDICATES FEW OR NO CLOUDS BELOW 12000 FEET
WITH NO SIGNIFICANT WEATHER AND/OR OBSTRUCTIONS TO VISIBILITY

IDZ012-014-220700-
SOUTHWEST IDAHO


CITY           SKY/WX    TMP DP  RH WIND       PRES   REMARKS
BOISE          MOCLDY    40  28  62 CALM      30.04R
CALDWELL       PTCLDY    37  28  70 SE6       30.05R WCI  32
MOUNTAIN HOME  CLOUDY    39  32  77 W5        30.04S
$$

IDZ016-017-220700-
SOUTHCENTRAL IDAHO


CITY           SKY/WX    TMP DP  RH WIND       PRES   REMARKS
BURLEY         CLOUDY    39  27  62 SW12      30.03R WCI  32
JEROME           N/A    N/A N/A N/A MISG      30.05R
TWIN FALLS     CLOUDY    37  25  61 SW10      30.05R WCI  30
$$

IDZ019>023-220700-
SOUTHEAST IDAHO


CITY           SKY/WX    TMP DP  RH WIND       PRES   REMARKS
IDAHO FALLS    CLEAR     33  29  85 S15       29.95S WCI  23
POCATELLO      CLOUDY    35  28  75 S12       30.02R WCI  27
REXBURG        CLOUDY    33  28  81 SW16G23   29.92S WCI  23
$$

IDZ006-010-011-018-031-032-220700-
CENTRAL IDAHO MOUNTAINS


CITY           SKY/WX    TMP DP  RH WIND       PRES   REMARKS
MCCALL         LGT SNOW  30  27  88 SE8       29.93R FOG     WCI  22
HAILEY         MOCLDY    30  28  93 N7        29.98S WCI  23
STANLEY          N/A     26  23  88 S5        29.93S WCI  20
SALMON         CLOUDY    37  23  56 SW9       29.88R WCI  31
CHALLIS        PTCLDY    32  20  61 SW10      29.91R WCI  24
$$

IDZ002-004-006-007-026-220700-
NORTHERN IDAHO


CITY           SKY/WX    TMP DP  RH WIND       PRES   REMARKS
LEWISTON       CLOUDY    37  34  89 E3        30.00R
LOWELL         NOT AVBL
COEUR D`ALENE  CLOUDY    33  32  96 SW8       29.96R FOG     WCI  26
MULLAN PASS    LGT SNOW  23  22  96 CALM      29.82R FOG
$$




USA.gov is the U.S. government's official web portal to all federal, state and local government web resources and services.